Featured Flight

MET1453 - Detroit to Chicago

Boeing 737-200
711MT
0 hrs 40 mins
199 nm
Scheduled - Daily

Bid/PiRep Status

Bid was submitted on December 27th, 2016 17:10 UTC.
PiRep # 74493: Approved by Dave Nichols on December 30th, 2016 7:54 UTC

Departure

Departing from
Detroit (DTW)
Departure gate
Scheduled Departure
GMT 1950
Local 1550
METAR KDTW 182253Z 21015KT 9SM SCT220 M04/M09 A3001 RMK AO2 SLP172 T10391089
TAF KDTW 182055Z 1821/1924 23014KT P6SM BKN220 FM190000 21010KT P6SM SCT250 FM191600 22014KT P6SM FEW025 SCT200

Route Map

Planning Resources

DTW JXN LFD GSH CGT MDW
JXN V116 LEROY GSH
CRL.BENJO.GIJ.
CRL-BENJO-GIJ
PALACE3 LEROY GSH GSH3
Route:
OFP Layout:
Units:
Detailed Navlog:
ETOPS Planning:
Plan Stepclimbs:
Runway Analysis:
Include NOTAMS:
FIR NOTAMS:
Flight Maps:

Popularity

Hub Current Bids PiReps this month Total PiReps
KLAX 0 0 1
KBOS 0 0 0
KDFW 0 0 0